Time,TemperatureF,DewpointF,PressureIn,WindDirection,WindDirectionDegrees,WindSpeedMPH,WindSpeedGustMPH,Humidity,HourlyPrecipIn,Conditions,Clouds,dailyrainin,SolarRadiationWatts/m^2,SoftwareType,DateUTC
2013-02-27 00:01:00,35.0,2.0,-100.00,ENE,77,2.0,7.0,24,0.00,,,-99.99,0.000000,,2013-02-27 08:01:00,
2013-02-27 00:22:00,35.0,4.0,-100.00,NNE,24,5.0,8.0,26,0.00,,,0.00,0.000000,,2013-02-27 08:22:00,
2013-02-27 00:32:00,35.0,4.0,-100.00,NNE,24,5.0,8.0,26,0.00,,,0.00,0.000000,,2013-02-27 08:32:00,
2013-02-27 00:42:00,35.0,4.0,-100.00,NNE,24,5.0,8.0,26,0.00,,,0.00,0.000000,,2013-02-27 08:42:00,
2013-02-27 00:52:00,35.0,4.0,-100.00,NNE,24,5.0,8.0,26,0.00,,,0.00,0.000000,,2013-02-27 08:52:00,
2013-02-27 01:01:00,35.0,4.0,-100.00,NNE,24,5.0,8.0,26,0.00,,,0.00,0.000000,,2013-02-27 09:01:00,
2013-02-27 01:32:00,32.0,5.0,-100.00,East,96,4.0,11.0,31,0.00,,,0.00,0.000000,,2013-02-27 09:32:00,
2013-02-27 01:42:00,32.0,5.0,-100.00,East,96,4.0,11.0,31,0.00,,,0.00,0.000000,,2013-02-27 09:42:00,
2013-02-27 01:52:00,32.0,5.0,-100.00,East,96,4.0,11.0,31,0.00,,,0.00,0.000000,,2013-02-27 09:52:00,
2013-02-27 02:01:00,32.0,5.0,-100.00,East,96,4.0,11.0,31,0.00,,,0.00,0.000000,,2013-02-27 10:01:00,
2013-02-27 02:32:00,33.0,4.0,-100.00,East,79,3.0,6.0,29,0.00,,,0.00,0.000000,,2013-02-27 10:32:00,
2013-02-27 02:42:00,33.0,4.0,-100.00,East,79,3.0,6.0,29,0.00,,,0.00,0.000000,,2013-02-27 10:42:00,
2013-02-27 02:52:00,33.0,4.0,-100.00,East,79,3.0,6.0,29,0.00,,,0.00,0.000000,,2013-02-27 10:52:00,
2013-02-27 03:01:00,33.0,4.0,-100.00,East,79,3.0,6.0,29,0.00,,,0.00,0.000000,,2013-02-27 11:01:00,
2013-02-27 03:32:00,33.0,4.0,-100.00,East,99,3.0,5.0,29,0.00,,,0.00,0.000000,,2013-02-27 11:32:00,
2013-02-27 03:42:00,33.0,4.0,-100.00,East,99,3.0,5.0,29,0.00,,,0.00,0.000000,,2013-02-27 11:42:00,
2013-02-27 03:52:00,33.0,4.0,-100.00,East,99,3.0,5.0,29,0.00,,,0.00,0.000000,,2013-02-27 11:52:00,
2013-02-27 04:01:00,33.0,4.0,-100.00,East,99,3.0,5.0,29,0.00,,,0.00,0.000000,,2013-02-27 12:01:00,
2013-02-27 04:02:00,33.0,6.0,-100.00,East,85,2.0,4.0,31,0.00,,,0.00,0.000000,,2013-02-27 12:02:00,
2013-02-27 04:33:00,33.0,6.0,-100.00,East,85,2.0,4.0,31,0.00,,,0.00,0.000000,,2013-02-27 12:33:00,
2013-02-27 04:42:00,33.0,6.0,-100.00,East,85,2.0,4.0,31,0.00,,,0.00,0.000000,,2013-02-27 12:42:00,
2013-02-27 04:52:00,33.0,6.0,-100.00,East,85,2.0,4.0,31,0.00,,,0.00,0.000000,,2013-02-27 12:52:00,
2013-02-27 05:32:00,32.0,3.0,-100.00,East,88,2.0,4.0,28,0.00,,,0.00,0.000000,,2013-02-27 13:32:00,
2013-02-27 05:42:00,32.0,3.0,-100.00,East,88,2.0,4.0,28,0.00,,,0.00,0.000000,,2013-02-27 13:42:00,
2013-02-27 05:52:00,32.0,3.0,-100.00,East,88,2.0,4.0,28,0.00,,,0.00,0.000000,,2013-02-27 13:52:00,
2013-02-27 06:01:00,32.0,3.0,-100.00,East,88,2.0,4.0,28,0.00,,,0.00,0.000000,,2013-02-27 14:01:00,
2013-02-27 06:22:00,31.0,3.0,-100.00,East,93,3.0,4.0,30,0.00,,,0.00,0.000000,,2013-02-27 14:22:00,
2013-02-27 06:32:00,31.0,3.0,-100.00,East,93,3.0,4.0,30,0.00,,,0.00,0.000000,,2013-02-27 14:32:00,
2013-02-27 06:42:00,31.0,3.0,-100.00,East,93,3.0,4.0,30,0.00,,,0.00,0.000000,,2013-02-27 14:42:00,
2013-02-27 06:52:00,31.0,3.0,-100.00,East,93,3.0,4.0,30,0.00,,,0.00,0.000000,,2013-02-27 14:52:00,
2013-02-27 07:01:00,31.0,3.0,-100.00,East,93,3.0,4.0,30,0.00,,,0.00,0.000000,,2013-02-27 15:01:00,
2013-02-27 07:32:00,33.0,3.0,-100.00,East,101,3.0,4.0,27,0.00,,,0.00,16.000000,,2013-02-27 15:32:00,
2013-02-27 07:42:00,33.0,3.0,-100.00,East,101,3.0,4.0,27,0.00,,,0.00,16.000000,,2013-02-27 15:42:00,
2013-02-27 07:52:00,33.0,3.0,-100.00,East,101,3.0,4.0,27,0.00,,,0.00,16.000000,,2013-02-27 15:52:00,
2013-02-27 08:01:00,33.0,3.0,-100.00,East,101,3.0,4.0,27,0.00,,,0.00,16.000000,,2013-02-27 16:01:00,
2013-02-27 08:22:00,41.0,6.0,-100.00,NE,37,4.0,7.0,23,0.00,,,0.00,178.000000,,2013-02-27 16:22:00,
2013-02-27 08:32:00,41.0,6.0,-100.00,NE,37,4.0,7.0,23,0.00,,,0.00,178.000000,,2013-02-27 16:32:00,
2013-02-27 08:42:00,41.0,6.0,-100.00,NE,37,4.0,7.0,23,0.00,,,0.00,178.000000,,2013-02-27 16:42:00,
2013-02-27 08:52:00,41.0,6.0,-100.00,NE,37,4.0,7.0,23,0.00,,,0.00,178.000000,,2013-02-27 16:52:00,
2013-02-27 09:01:00,41.0,6.0,-100.00,NE,37,4.0,7.0,23,0.00,,,0.00,178.000000,,2013-02-27 17:01:00,
2013-02-27 09:21:00,45.0,7.0,-100.00,North,356,8.0,14.0,21,0.00,,,0.00,459.000000,,2013-02-27 17:21:00,
2013-02-27 09:32:00,45.0,7.0,-100.00,North,356,8.0,14.0,21,0.00,,,0.00,459.000000,,2013-02-27 17:32:00,
2013-02-27 09:42:00,45.0,7.0,-100.00,North,356,8.0,14.0,21,0.00,,,0.00,459.000000,,2013-02-27 17:42:00,
2013-02-27 09:52:00,45.0,7.0,-100.00,North,356,8.0,14.0,21,0.00,,,0.00,459.000000,,2013-02-27 17:52:00,
2013-02-27 10:01:00,45.0,7.0,-100.00,North,356,8.0,14.0,21,0.00,,,0.00,459.000000,,2013-02-27 18:01:00,
2013-02-27 10:32:00,45.0,7.0,-100.00,NNW,344,10.0,19.0,21,0.00,,,0.00,681.000000,,2013-02-27 18:32:00,
2013-02-27 10:42:00,45.0,7.0,-100.00,NNW,344,10.0,19.0,21,0.00,,,0.00,681.000000,,2013-02-27 18:42:00,
2013-02-27 10:52:00,45.0,7.0,-100.00,NNW,344,10.0,19.0,21,0.00,,,0.00,681.000000,,2013-02-27 18:52:00,
2013-02-27 11:01:00,45.0,7.0,-100.00,NNW,344,10.0,19.0,21,0.00,,,0.00,681.000000,,2013-02-27 19:01:00,
2013-02-27 11:32:00,47.0,8.0,-100.00,NNW,338,10.0,19.0,20,0.00,,,0.00,848.000000,,2013-02-27 19:32:00,
2013-02-27 11:42:00,47.0,8.0,-100.00,NNW,338,10.0,19.0,20,0.00,,,0.00,848.000000,,2013-02-27 19:42:00,
2013-02-27 11:52:00,47.0,8.0,-100.00,NNW,338,10.0,19.0,20,0.00,,,0.00,848.000000,,2013-02-27 19:52:00,
2013-02-27 12:01:00,47.0,8.0,-100.00,NNW,338,10.0,19.0,20,0.00,,,0.00,848.000000,,2013-02-27 20:01:00,
2013-02-27 12:22:00,48.0,10.0,-100.00,NNW,344,10.0,19.0,21,0.00,,,-99.99,947.000000,,2013-02-27 20:22:00,
2013-02-27 12:32:00,48.0,10.0,-100.00,NNW,344,10.0,19.0,21,0.00,,,-99.99,947.000000,,2013-02-27 20:32:00,
2013-02-27 12:42:00,48.0,10.0,-100.00,NNW,344,10.0,19.0,21,0.00,,,-99.99,947.000000,,2013-02-27 20:42:00,
2013-02-27 12:52:00,48.0,10.0,-100.00,NNW,344,10.0,19.0,21,0.00,,,-99.99,947.000000,,2013-02-27 20:52:00,
2013-02-27 13:01:00,48.0,10.0,-100.00,NNW,344,10.0,19.0,21,0.00,,,-99.99,947.000000,,2013-02-27 21:01:00,
2013-02-27 13:32:00,49.0,7.0,-100.00,North,349,11.0,19.0,18,0.00,,,0.00,968.000000,,2013-02-27 21:32:00,
2013-02-27 13:42:00,49.0,7.0,-100.00,North,349,11.0,19.0,18,0.00,,,0.00,968.000000,,2013-02-27 21:42:00,
2013-02-27 13:52:00,49.0,7.0,-100.00,North,349,11.0,19.0,18,0.00,,,0.00,968.000000,,2013-02-27 21:52:00,
2013-02-27 14:01:00,49.0,7.0,-100.00,North,349,11.0,19.0,18,0.00,,,0.00,968.000000,,2013-02-27 22:01:00,
2013-02-27 14:32:00,50.0,8.0,-100.00,North,353,11.0,18.0,18,0.00,,,0.00,908.000000,,2013-02-27 22:32:00,
2013-02-27 14:42:00,50.0,8.0,-100.00,North,353,11.0,18.0,18,0.00,,,0.00,908.000000,,2013-02-27 22:42:00,
2013-02-27 14:52:00,50.0,8.0,-100.00,North,353,11.0,18.0,18,0.00,,,0.00,908.000000,,2013-02-27 22:52:00,
2013-02-27 15:01:00,50.0,8.0,-100.00,North,353,11.0,18.0,18,0.00,,,0.00,908.000000,,2013-02-27 23:01:00,
2013-02-27 15:32:00,50.0,3.0,-100.00,NNE,12,12.0,22.0,14,0.00,,,0.00,773.000000,,2013-02-27 23:32:00,
2013-02-27 15:42:00,50.0,3.0,-100.00,NNE,12,12.0,22.0,14,0.00,,,0.00,773.000000,,2013-02-27 23:42:00,
2013-02-27 15:53:00,50.0,3.0,-100.00,NNE,12,12.0,22.0,14,0.00,,,0.00,773.000000,,2013-02-27 23:53:00,
2013-02-27 16:01:00,50.0,3.0,-100.00,NNE,12,12.0,22.0,14,0.00,,,0.00,773.000000,,2013-02-28 00:01:00,
2013-02-27 16:22:00,49.0,0.0,-100.00,North,2,9.0,17.0,13,0.00,,,0.00,573.000000,,2013-02-28 00:22:00,
2013-02-27 16:32:00,49.0,0.0,-100.00,North,2,9.0,17.0,13,0.00,,,0.00,573.000000,,2013-02-28 00:32:00,
2013-02-27 16:42:00,49.0,0.0,-100.00,North,2,9.0,17.0,13,0.00,,,0.00,573.000000,,2013-02-28 00:42:00,
2013-02-27 16:52:00,49.0,0.0,-100.00,North,2,9.0,17.0,13,0.00,,,0.00,573.000000,,2013-02-28 00:52:00,
2013-02-27 17:01:00,49.0,0.0,-100.00,North,2,9.0,17.0,13,0.00,,,0.00,573.000000,,2013-02-28 01:01:00,
2013-02-27 17:32:00,47.0,0.0,-100.00,North,357,7.0,16.0,14,0.00,,,0.00,317.000000,,2013-02-28 01:32:00,
2013-02-27 17:42:00,47.0,0.0,-100.00,North,357,7.0,16.0,14,0.00,,,0.00,317.000000,,2013-02-28 01:42:00,
2013-02-27 17:52:00,47.0,0.0,-100.00,North,357,7.0,16.0,14,0.00,,,0.00,317.000000,,2013-02-28 01:52:00,
2013-02-27 18:01:00,47.0,0.0,-100.00,North,357,7.0,16.0,14,0.00,,,0.00,317.000000,,2013-02-28 02:01:00,
2013-02-27 18:22:00,42.0,-1.0,-100.00,NNE,13,7.0,12.0,16,0.00,,,0.00,48.000000,,2013-02-28 02:22:00,
2013-02-27 18:32:00,42.0,-1.0,-100.00,NNE,13,7.0,12.0,16,0.00,,,0.00,48.000000,,2013-02-28 02:32:00,
2013-02-27 18:42:00,42.0,-1.0,-100.00,NNE,13,7.0,12.0,16,0.00,,,0.00,48.000000,,2013-02-28 02:42:00,
2013-02-27 18:52:00,42.0,-1.0,-100.00,NNE,13,7.0,12.0,16,0.00,,,0.00,48.000000,,2013-02-28 02:52:00,
2013-02-27 19:01:00,42.0,-1.0,-100.00,NNE,13,7.0,12.0,16,0.00,,,0.00,48.000000,,2013-02-28 03:01:00,
2013-02-27 19:32:00,40.0,0.0,-100.00,North,353,6.0,11.0,18,0.00,,,0.00,0.000000,,2013-02-28 03:32:00,
2013-02-27 19:42:00,40.0,0.0,-100.00,North,353,6.0,11.0,18,0.00,,,0.00,0.000000,,2013-02-28 03:42:00,
2013-02-27 19:52:00,40.0,0.0,-100.00,North,353,6.0,11.0,18,0.00,,,0.00,0.000000,,2013-02-28 03:52:00,
2013-02-27 20:01:00,40.0,0.0,-100.00,North,353,6.0,11.0,18,0.00,,,0.00,0.000000,,2013-02-28 04:01:00,
2013-02-27 20:22:00,40.0,0.0,-100.00,North,351,6.0,11.0,18,0.00,,,0.00,0.000000,,2013-02-28 04:22:00,
2013-02-27 20:32:00,40.0,0.0,-100.00,North,351,6.0,11.0,18,0.00,,,0.00,0.000000,,2013-02-28 04:32:00,
2013-02-27 20:42:00,40.0,0.0,-100.00,North,351,6.0,11.0,18,0.00,,,0.00,0.000000,,2013-02-28 04:42:00,
2013-02-27 20:52:00,40.0,0.0,-100.00,North,351,6.0,11.0,18,0.00,,,0.00,0.000000,,2013-02-28 04:52:00,
2013-02-27 21:01:00,40.0,0.0,-100.00,North,351,6.0,11.0,18,0.00,,,0.00,0.000000,,2013-02-28 05:01:00,
2013-02-27 21:22:00,37.0,0.0,-100.00,WSW,249,1.0,10.0,20,0.00,,,0.00,0.000000,,2013-02-28 05:22:00,
2013-02-27 21:32:00,37.0,0.0,-100.00,WSW,249,1.0,10.0,20,0.00,,,0.00,0.000000,,2013-02-28 05:32:00,
2013-02-27 21:42:00,37.0,0.0,-100.00,WSW,249,1.0,10.0,20,0.00,,,0.00,0.000000,,2013-02-28 05:42:00,
2013-02-27 21:52:00,37.0,0.0,-100.00,WSW,249,1.0,10.0,20,0.00,,,0.00,0.000000,,2013-02-28 05:52:00,
2013-02-27 22:01:00,37.0,0.0,-100.00,WSW,249,1.0,10.0,20,0.00,,,0.00,0.000000,,2013-02-28 06:01:00,
2013-02-27 22:32:00,36.0,0.0,-100.00,SE,126,3.0,4.0,21,0.00,,,0.00,0.000000,,2013-02-28 06:32:00,
2013-02-27 22:42:00,36.0,0.0,-100.00,SE,126,3.0,4.0,21,0.00,,,0.00,0.000000,,2013-02-28 06:42:00,
2013-02-27 22:52:00,36.0,0.0,-100.00,SE,126,3.0,4.0,21,0.00,,,0.00,0.000000,,2013-02-28 06:52:00,
2013-02-27 23:01:00,36.0,0.0,-100.00,SE,126,3.0,4.0,21,0.00,,,0.00,0.000000,,2013-02-28 07:01:00,
2013-02-27 23:22:00,36.0,-1.0,-100.00,East,88,3.0,5.0,20,0.00,,,0.00,0.000000,,2013-02-28 07:22:00,
2013-02-27 23:32:00,36.0,-1.0,-100.00,East,88,3.0,5.0,20,0.00,,,0.00,0.000000,,2013-02-28 07:32:00,
2013-02-27 23:42:00,36.0,-1.0,-100.00,East,88,3.0,5.0,20,0.00,,,0.00,0.000000,,2013-02-28 07:42:00,
2013-02-27 23:52:00,36.0,-1.0,-100.00,East,88,3.0,5.0,20,0.00,,,0.00,0.000000,,2013-02-28 07:52:00,